Manitowoc, WI

11:57 PM CST on December 11, 2017 (GMT -0600)
Manitowoc County

Weather History for KMTW - November, 2013

Change the Weather History Date:

Saturday, November 2, 2013

  Actual Average Record
Temperature  
Mean Temperature 37 °F -  
Max Temperature 45 °F 50 °F 71 °F (1990)
Min Temperature 30 °F 36 °F 13 °F (1951)
Degree Days  
Heating Degree Days 28    
Moisture  
Dew Point 35 °F    
Average Humidity 84    
Maximum Humidity 93    
Minimum Humidity 65    
Precipitation  
Precipitation 0.00 in - - ()
Sea Level Pressure  
Sea Level Pressure 30.01 in    
Wind  
Wind Speed 8 mph (NNW)    
Max Wind Speed 13 mph    
Max Gust Speed -    
Visibility 10 miles    
Events      
Averages and records for this station are not official NWS values.
T = Trace of Precipitation, MM = Missing Value Source: NWS Daily Summary

Daily Weather History Graph

Daily Weather History Graph

Search for Another Location

Airport or City:

Trip Planner

Search our weather history database for the weather conditions in past years. The results will help you decide how hot, cold, wet, or windy it might be!

Date:

Astronomy

Nov. 02, 2013 Rise Set
Actual Time 7:29 AM CDT 5:38 PM CDT
Civil Twilight 6:58 AM CDT 6:09 PM CDT
Nautical Twilight 6:24 AM CDT 6:43 PM CDT
Astronomical Twilight 5:50 AM CDT 7:16 PM CDT
Moon 6:24 AM CDT (11/2) 5:10 PM CDT (11/2)
Length of Visible Light 11h 10m
Length of Day
10h 09m
Waning Crescent, 1% of the Moon is Illuminated
Nov 2
Waning Crescent
Nov 3
New
Nov 9
First Quarter
Nov 17
Full
Nov 25
Last Quarter

Hourly Weather History & Observations

Time (CDT) Temp. Windchill Dew Point Humidity Pressure Visibility Wind Dir Wind Speed Gust Speed Precip Events Conditions
12:56 AM 43.0 °F 37.7 °F 41.0 °F 93% 29.80 in 10.0 mi NNW 9.2 mph - N/A   Overcast
1:09 AM 42.8 °F 38.0 °F 41.0 °F 93% 29.72 in 10.0 mi NNW 8.1 mph - N/A   Overcast
1:56 AM 43.0 °F 37.2 °F 39.9 °F 89% 29.81 in 10.0 mi NNW 10.4 mph - N/A   Overcast
2:56 AM 43.0 °F 37.7 °F 39.9 °F 89% 29.83 in 10.0 mi NNW 9.2 mph - N/A   Overcast
3:56 AM 42.1 °F 37.7 °F 37.9 °F 85% 29.85 in 10.0 mi North 6.9 mph - N/A   Overcast
4:56 AM 41.0 °F 35.2 °F 37.9 °F 89% 29.87 in 10.0 mi NNW 9.2 mph - N/A   Overcast
5:56 AM 39.9 °F 33.9 °F 37.0 °F 89% 29.89 in 10.0 mi NNW 9.2 mph - N/A   Overcast
6:56 AM 39.0 °F 34.0 °F 36.0 °F 89% 29.91 in 10.0 mi NNW 6.9 mph - N/A   Overcast
7:56 AM 37.9 °F 32.7 °F 35.1 °F 89% 29.94 in 10.0 mi NNW 6.9 mph - N/A   Scattered Clouds
8:56 AM 41.0 °F 35.2 °F 37.0 °F 86% 29.96 in 10.0 mi NNW 9.2 mph - N/A   Scattered Clouds
9:56 AM 42.1 °F 36.1 °F 37.0 °F 82% 29.98 in 10.0 mi NNW 10.4 mph - N/A   Mostly Cloudy
10:56 AM 41.0 °F 34.3 °F 37.0 °F 86% 30.01 in 10.0 mi North 11.5 mph - 0.00 in   Overcast
11:56 AM 44.1 °F 37.7 °F 36.0 °F 73% 30.03 in 10.0 mi North 12.7 mph - 0.00 in   Mostly Cloudy
12:56 PM 44.1 °F 40.1 °F 36.0 °F 73% 30.04 in 10.0 mi North 6.9 mph - N/A   Mostly Cloudy
1:56 PM 44.1 °F 41.5 °F 34.0 °F 68% 30.06 in 10.0 mi NNE 4.6 mph - N/A   Overcast
2:56 PM 43.0 °F 39.5 °F 32.0 °F 65% 30.07 in 10.0 mi NNE 5.8 mph - N/A   Overcast
3:56 PM 43.0 °F 38.8 °F 34.0 °F 71% 30.09 in 10.0 mi NNE 6.9 mph - N/A   Overcast
4:56 PM 42.1 °F 38.4 °F 34.0 °F 73% 30.12 in 10.0 mi NNE 5.8 mph - N/A   Overcast
5:56 PM 39.9 °F 37.8 °F 35.1 °F 83% 30.13 in 10.0 mi NNE 3.5 mph - N/A   Mostly Cloudy
6:56 PM 37.9 °F - 34.0 °F 86% 30.16 in 10.0 mi Calm Calm - N/A   Clear
7:56 PM 33.1 °F 30.0 °F 30.9 °F 92% 30.18 in 10.0 mi WNW 3.5 mph - N/A   Clear
8:56 PM 34.0 °F - 32.0 °F 92% 30.20 in 10.0 mi Calm Calm - N/A   Clear
9:56 PM 30.9 °F 27.5 °F 28.9 °F 92% 30.20 in 10.0 mi West 3.5 mph - N/A   Clear
10:56 PM 30.9 °F 26.2 °F 28.9 °F 92% 30.22 in 10.0 mi WNW 4.6 mph - N/A   Clear
11:56 PM 32.0 °F 28.7 °F 30.0 °F 92% 30.23 in 10.0 mi NNW 3.5 mph - N/A   Clear